To NAV CANADA Home Page Login to a new session Search on AWWS site Feedback and Comments Disclaimer Vers la page française équivalente Tips FAQ What's new on the site To the Forecasts and Observations / NOTAM section To "File a Flight Plan" website Publications and other links Update of the User's profile FIC Telephone Numbers My Weather Data Folder Route Weather Data Regional Weather Data Local Weather Data To the Forecasts and Observations / NOTAM section
Request Generated 10/18/2017 at 03:49:24 UTC . Weather information available at that time is displayed.

METAR/TAF

PANGNIRTUNG/NU    (show WxCam)

LWIS CYXP 180300Z AUTO VRB02KT M04/M09 A2957=
METAR CYXP 180200Z 18002KT 15SM OVC060 M04/M09 A2956 RMK SC8 CIG ESTD
CALL OUT LAST STFD OBS/NEXT 181100Z SLP014=
METAR CYXP 180100Z 22002KT 15SM OVC060 M04/M09 A2956 RMK SC8 CIG ESTD
CALL OUT SLP013=

*** REMARK        : Forecast period has ended; this was the last TAF issued
*** REMARQUE : La période de prévision est échue; ceci était le dernier TAF qui a été émis
TAF CYXP 171838Z 1719/1722 VRB03KT P6SM FEW030 OVC060
RMK NXT FCST WILL BE ISSUED AT 181245Z=
Your time UTC time
Weather data provided by Environment Canada and NAV CANADA